Orbital Elements at Epoch 2459000.5 (2020-May-31.0) TDB
Reference: JPL 40 (heliocentric ecliptic J2000)
Element | Value | Uncertainty (1-sigma) | Units |
e | .06516365624975075 | 2.8282e-08 | |
a | 3.01859172281242 | 1.3246e-08 | au |
q | 2.821889249428729 | 8.9859e-08 | au |
i | 10.45659532652626 | 4.3539e-06 | deg |
node | 23.56377717247199 | 1.6631e-05 | deg |
peri | 268.2911344893222 | 4.0225e-05 | deg |
M | 270.8692926072858 | 3.8231e-05 | deg |
tp | 2459474.774576292116 (2021-Sep-17.27457629) | 0.00020421 | TDB |
period | 1915.600722351257 5.24 | 1.2608e-05 3.452e-08 | d yr |
n | .1879306035957884 | 1.237e-09 | deg/d |
Q | 3.215294196196112 | 1.4109e-08 | au |
|
| | Orbit Determination Parameters
Additional Information
|